Weather in Shizuoka

Japan     34°59′34″N   138°26′10″E
temp.,
°C
wind,
m/s
gust,
m/s
humid.,
%
clouds,
%
prec.,
mm/h
press.,
hPa
HPBL,
m
12 august, fri
fri1200:00+26wsw2387100 1.7 1012172
03:00+25wsw3489100 4.8 1011300
06:00+25w259035 3.9 1012234
09:00+26sw368899 8.6 1013456
12:00+27ssw4684100 7.3 1012634
15:00+27ssw4584100 14.7 1011425
18:00+26s3487100 5.3 1011214
21:00+26s3688100 9.9 1011399
13 august, sat
sat1300:00+26s4687100 7.7 1011471
03:00+26sse478999 16.7 1011451
06:00+26ese3586100 6.1 1011344
09:00+25ene2490100 11.9 1011279
12:00+25se6992100 8.9 1008555
15:00+24nne162194100 85.9 9961201
18:00+26wsw101686100 17.6 1006950
21:00+26wsw51087100 18.6 1008410
14 august, sun
sun1400:00+25w2589100 1.1 1008265
03:00+25wnw2289100 1.4 1008135
06:00+25nw118472 0.1 100887
09:00+27ssw127842 0.1 1008373
12:00+30s34726 0.1 1007509
15:00+30ssw79741 0.7 1006633
18:00+28sw698410 2.7 1007527
21:00+27wsw35874 4.9 1008303
15 august, mon
mon1500:00+26nw228996 0.0 100793
03:00+25nw118698 0.0 100678
06:00+25nnw2283100 0.0 1007104
09:00+28sse117677 0.0 1007324
12:00+29se337568 0.0 1006442
15:00+31ssw136992 0.0 1004344
18:00+29sw597832 0.0 1004362
21:00+28w36827 0.0 1006195
16 august, tue
tue1600:00+27w3586100 0.0 1005244
03:00+26w478585 0.0 1005285
06:00+26wsw47877 0.0 1005336
09:00+29sw467510 0.0 1004483
12:00+32sw101263100 0.0 1003864
15:00+31sw11146996 0.0 1002789
18:00+29sw91578100 0.0 1002572
21:00+28wsw71282100 0.0 1004371